GFSCGP_prec_cloud_018.txt.gz
Cloud_Cover
2 0 0 0 0 0 0 0 0 0 0 0 0 1 11 0 0 0 0 0 0 0 0 0 0 0 0 0 0 0 0 0 0 0 0 0 0 0 0 0 0 0 0 0
1 0 0 0 0 0 0 0 0 0 0 0 0 0 5 35 5 3 1 1 0 0 0 0 0 0 0 0 0 0 0 0 0 0 0 0 0 0 0 0 0 0 0 1
5 5 0 0 0 0 0 0 0 0 0 0 0 2 6 5 31 4 0 0 0 0 0 0 0 0 0 0 0 0 0 0 0 0 0 0 0 0 0 0 0 0 4 5
5 5 2 4 0 0 0 0 0 0 0 0 0 6 98 78 88 98 5 0 0 5 0 0 0 0 0 0 0 0 0 0 0 0 0 0 0 0 0 0 1 2 5 5
2 5 5 0 0 0 0 0 0 0 0 0 0 0 62 100 93 96 43 50 18 51 25 7 2 0 0 0 0 0 0 0 0 0 0 0 0 0 4 3 1 0 0 0
0 0 0 0 0 0 0 0 0 0 0 0 0 0 8 93 100 44 30 86 100 94 98 100 100 100 55 6 5 4 4 2 2 1 1 4 5 0 0 0 0 0 0 0
0 0 0 0 0 0 0 0 0 0 0 0 0 0 0 0 0 3 1 0 0 2 2 2 5 28 49 49 6 4 1 1 1 0 0 0 0 0 0 0 0 0 0 0
0 0 0 0 0 0 0 0 0 0 0 0 0 0 0 0 0 0 0 0 0 0 0 0 0 0 0 0 0 0 0 0 0 0 0 0 0 0 0 0 0 0 0 0
2 5 0 0 0 0 0 1 0 4 0 0 0 0 0 0 0 0 0 0 0 0 0 0 0 0 0 0 0 0 0 0 0 0 0 0 0 0 0 0 0 0 0 0
12 0 0 4 1 0 0 0 0 0 0 0 0 0 0 0 0 0 0 0 0 0 0 0 0 0 0 0 0 0 0 0 0 0 0 0 0 0 0 0 0 0 0 0
0 0 1 0 0 0 0 0 5 4 3 2 13 0 0 0 0 1 6 69 75 89 70 10 3 0 0 0 0 0 0 0 0 0 0 0 0 0 0 0 0 0 0 0
0 0 0 0 0 0 4 33 51 99 4 3 5 0 0 0 0 0 0 45 5 4 91 97 90 95 5 0 0 0 0 0 0 0 0 0 0 0 0 0 0 0 0 0
0 0 0 0 0 1 4 3 0 2 9 6 81 19 37 0 0 2 49 5 5 3 1 7 86 79 100 87 100 100 72 12 1 0 0 0 0 0 0 0 0 0 0 0
0 0 0 0 0 16 6 11 4 5 86 15 93 84 34 2 5 37 5 96 99 98 60 4 6 5 100 100 100 100 100 100 100 29 58 41 5 0 0 0 0 0 0 0
1 4 4 5 5 5 5 5 4 1 2 54 0 5 4 5 5 6 98 98 100 74 5 5 48 3 32 100 100 100 100 100 100 100 100 100 100 50 0 0 0 0 0 0
44 55 50 54 32 6 56 11 0 5 5 3 1 5 18 5 5 12 82 56 100 100 17 5 37 22 1 3 33 100 100 100 100 100 100 100 100 100 59 5 0 0 1 1
70 75 98 88 9 13 82 1 1 5 2 0 5 5 5 63 13 4 5 32 30 85 80 8 99 100 72 59 17 88 100 100 100 100 100 100 100 100 100 100 10 0 4 5
6 68 100 87 58 89 5 1 0 0 0 4 4 28 90 100 43 1 41 5 5 5 5 25 100 100 100 98 91 48 100 100 100 100 100 100 100 100 100 76 5 5 5 3
3 14 100 100 88 27 14 0 100 6 0 5 6 94 100 100 37 0 100 100 90 5 11 5 84 100 100 100 99 12 70 100 100 6 100 100 100 100 100 39 75 90 40 6
0 8 97 87 100 100 0 0 2 5 7 13 87 9 72 90 97 7 5 3 42 23 5 5 5 100 100 100 100 100 100 100 100 95 100 100 100 100 58 96 100 100 100 100
26 29 90 100 100 90 7 50 23 80 68 8 95 98 100 84 88 29 5 5 5 5 0 18 5 68 100 100 100 100 100 100 100 100 100 100 100 100 78 73 100 100 100 100
5 38 59 99 100 73 99 98 100 100 19 100 96 100 100 13 68 5 4 4 5 5 3 0 4 5 82 92 96 100 100 100 100 99 100 100 100 96 100 66 100 100 91 100
16 5 31 37 34 0 12 94 74 100 100 100 100 100 100 42 5 5 5 8 10 87 54 5 5 5 5 27 70 88 100 65 100 99 41 80 100 100 100 100 100 98 65 100
2 40 93 100 4 5 95 14 100 97 71 100 89 98 98 88 39 5 5 60 8 24 24 9 5 5 5 64 99 25 100 68 33 100 100 100 100 100 100 100 100 97 94 100
2 50 16 89 78 81 64 73 71 33 47 100 18 97 100 100 53 5 5 5 23 100 95 5 5 5 5 84 47 100 100 95 98 100 100 100 100 100 100 100 100 100 100 100
15 87 100 58 24 97 100 22 11 77 47 93 96 66 85 99 9 5 5 8 44 9 78 6 5 5 11 64 96 100 100 99 100 100 100 100 100 100 79 49 87 100 100 100

GFSCGP_prec_cloud_021.txt.gz
Cloud_Cover
0 0 0 0 0 0 0 0 0 0 0 2 5 89 100 36 2 0 0 0 0 0 0 0 0 0 0 0 0 0 0 0 0 0 0 0 0 0 0 0 0 0 0 0
5 2 0 0 0 0 0 0 0 3 1 0 0 11 5 100 36 1 2 0 0 0 0 0 0 0 0 0 0 0 0 0 0 0 0 0 0 0 0 0 0 0 0 0
19 18 5 5 5 5 5 0 0 0 0 0 0 5 68 46 98 50 0 2 4 4 0 0 0 0 0 0 0 0 0 0 0 0 0 0 0 0 0 0 0 0 0 0
1 0 0 0 0 0 0 0 0 0 0 0 0 13 99 12 77 47 31 52 4 4 0 2 0 0 0 0 0 0 0 0 0 0 0 0 0 0 0 0 0 0 0 0
2 3 4 0 0 0 3 0 0 0 0 0 3 0 92 100 26 5 5 7 5 3 44 99 100 82 21 2 5 5 5 4 1 0 0 1 0 0 0 0 0 0 0 5
0 0 0 0 0 0 0 0 0 0 0 0 0 0 10 56 4 68 11 5 5 0 0 0 6 77 100 100 86 36 6 5 5 4 5 5 5 7 5 4 5 5 5 24
0 0 0 0 0 0 0 0 0 0 0 0 0 0 0 0 0 0 0 0 0 0 0 0 0 0 0 0 38 85 100 99 62 5 0 4 55 37 5 5 5 5 4 3
0 0 1 0 0 0 0 0 0 0 0 0 0 0 2 1 0 0 0 0 0 0 0 0 0 0 0 0 0 0 0 1 14 65 6 3 0 0 0 0 0 0 0 0
5 4 0 0 0 0 0 0 0 0 0 0 0 0 0 0 0 0 0 0 0 0 0 2 0 0 0 1 0 0 0 0 0 0 0 0 0 0 0 0 0 0 0 0
2 1 0 0 0 0 0 0 0 0 0 0 0 0 0 0 0 0 0 0 0 0 0 0 1 5 5 4 10 29 4 3 0 0 0 0 0 0 0 0 0 0 0 0
0 0 0 0 0 0 0 0 0 2 0 0 0 0 4 0 0 0 0 0 4 91 0 0 0 0 5 5 5 57 57 100 99 94 2 0 0 0 0 0 0 0 0 0
0 0 0 0 0 0 0 0 2 3 0 0 1 1 0 0 0 5 5 5 94 5 5 5 5 2 5 53 70 89 46 100 100 100 100 92 5 0 0 0 0 0 0 0
0 0 0 0 0 4 5 24 5 56 36 0 60 3 2 4 5 5 5 16 71 12 5 5 0 44 60 5 5 25 38 96 100 100 100 100 100 7 0 0 0 0 0 0
0 0 0 0 0 0 0 0 4 5 5 14 43 55 50 16 5 4 2 5 74 51 18 5 5 40 100 23 6 65 29 17 36 100 100 100 100 80 16 1 0 0 0 0
0 0 0 0 0 0 0 1 0 5 5 85 34 100 51 10 100 5 5 28 55 9 5 5 5 5 16 81 96 62 74 35 20 96 100 100 100 100 100 39 1 0 0 0
3 3 4 5 3 5 5 5 5 17 87 98 4 2 63 5 5 5 70 95 79 63 40 5 5 5 26 68 97 100 99 100 100 100 100 100 100 100 100 100 9 2 0 0
4 5 16 5 4 10 7 5 1 3 14 96 5 5 5 30 7 5 93 55 81 100 100 5 8 5 5 17 100 100 100 100 100 100 100 100 100 100 100 100 41 100 42 5
5 4 41 54 85 42 4 4 5 19 13 47 28 32 94 99 20 2 86 100 98 14 62 40 15 5 5 5 81 100 100 98 100 100 100 100 100 100 100 100 100 91 100 99
4 10 65 91 93 12 5 5 6 5 5 0 75 21 74 100 97 0 100 100 56 94 24 27 5 0 5 5 13 100 100 100 100 100 100 100 100 100 100 100 100 39 100 100
2 8 94 100 100 69 4 6 5 5 5 100 57 100 99 92 70 6 27 26 16 79 19 5 5 0 0 5 5 90 100 100 100 100 97 100 100 100 100 100 100 100 100 100
0 8 37 100 95 92 3 40 4 88 100 4 2 28 83 100 100 93 100 100 100 17 2 5 5 94 18 5 5 5 100 100 99 100 98 100 100 100 100 100 100 100 100 100
22 91 69 80 90 20 2 28 51 16 16 46 72 98 100 65 62 96 30 92 100 29 2 80 6 5 57 7 5 5 22 100 100 100 82 100 100 100 100 100 100 100 100 100
4 4 7 51 10 4 5 32 5 92 100 8 98 83 16 98 39 10 5 82 34 13 5 5 5 6 13 5 5 5 5 89 100 85 36 100 100 100 100 100 100 100 100 100
5 4 30 29 5 27 5 63 37 7 46 84 93 100 100 100 100 28 5 23 99 5 93 5 5 5 5 5 5 5 10 55 97 99 40 100 100 100 100 100 95 100 100 62
1 5 5 5 6 50 6 26 8 66 100 99 99 100 100 100 100 100 76 5 5 3 5 5 5 5 5 5 5 5 65 42 100 95 87 52 100 100 100 100 100 100 100 93
1 9 39 5 5 77 5 5 49 65 91 58 93 58 80 100 100 100 56 10 9 8 17 19 5 30 5 5 5 27 12 100 100 100 63 63 99 100 100 100 100 100 100 100

GFSCGP_prec_cloud_024.txt.gz
Cloud_Cover
0 0 0 0 0 0 0 0 0 0 0 0 0 5 5 3 0 0 0 0 0 0 0 0 0 0 0 0 0 0 0 0 0 0 0 0 0 0 0 0 0 0 0 0
3 2 0 0 0 0 0 0 0 0 0 0 0 11 5 100 2 4 0 1 2 0 0 0 0 0 0 0 0 0 0 0 0 0 0 0 0 0 0 0 0 0 0 0
0 2 0 0 0 0 0 0 0 1 4 0 0 4 5 3 5 0 0 5 3 0 0 1 0 0 0 0 2 0 0 0 0 0 0 0 0 0 0 0 0 0 0 0
0 0 0 0 0 0 0 0 0 0 1 4 2 2 97 1 2 2 0 0 0 0 0 0 0 0 3 0 4 5 5 5 5 4 2 4 2 0 0 0 0 0 0 0
4 3 4 3 0 0 0 1 4 5 2 5 29 2 83 93 6 0 0 0 0 0 0 0 0 0 0 0 0 0 0 0 1 5 5 5 5 7 0 0 0 0 0 0
0 2 0 0 0 0 0 0 0 0 0 2 0 1 9 0 0 0 0 0 0 0 0 0 0 0 0 0 0 0 0 2 0 0 0 0 0 2 18 5 2 5 3 0
0 0 0 0 0 0 0 0 0 0 0 0 0 0 0 0 0 0 0 0 0 0 0 0 0 0 0 0 0 0 0 0 2 5 5 3 0 0 0 0 3 5 12 4
0 4 0 0 0 0 0 0 0 0 0 0 0 0 0 0 0 0 0 0 0 0 0 0 0 0 0 0 0 0 0 0 0 0 0 0 0 0 0 0 0 0 2 59
0 0 0 0 0 0 0 0 0 0 0 0 0 0 5 1 0 0 0 0 0 0 0 0 0 0 0 0 0 0 2 5 2 0 10 4 0 0 0 0 0 0 0 0
0 0 0 0 0 0 0 0 0 0 0 0 0 0 0 1 0 0 0 0 0 0 0 0 0 0 0 0 0 26 61 0 0 0 10 90 6 5 1 0 0 0 0 0
0 0 0 0 0 0 0 0 0 0 0 0 0 0 5 0 0 0 0 0 0 0 0 0 0 0 0 0 1 65 5 2 0 0 0 14 5 100 98 53 0 2 3 0
0 0 0 0 0 0 0 0 0 0 0 0 6 0 0 0 0 0 0 0 3 0 2 0 0 0 0 1 5 5 5 1 3 5 1 0 97 100 100 100 85 32 98 14
0 0 0 0 0 0 0 3 5 0 2 0 46 5 0 0 0 0 1 5 5 5 0 0 0 0 5 0 0 0 0 5 7 5 2 1 5 100 100 100 100 95 77 100
0 0 0 0 0 0 1 0 1 0 0 0 2 0 0 0 1 5 5 5 1 2 0 0 1 2 5 1 0 4 5 2 5 5 91 32 5 42 100 100 100 100 100 100
0 0 0 0 0 0 5 1 5 0 0 10 0 58 42 5 0 0 6 13 2 0 0 1 3 4 5 2 0 0 3 4 4 69 100 81 19 7 100 100 100 100 100 100
0 0 0 0 0 4 5 8 4 0 1 52 11 0 0 5 0 4 0 5 4 0 4 16 11 0 0 0 5 1 0 1 5 6 100 100 51 100 100 100 100 100 100 100
0 0 4 4 0 4 0 4 0 0 4 24 3 0 0 0 2 0 0 15 49 5 45 39 4 1 0 0 0 0 0 2 5 20 100 89 99 100 100 100 100 100 100 100
0 0 2 4 4 9 0 0 0 0 0 0 0 0 0 5 5 4 0 95 99 56 85 35 10 3 5 0 0 0 3 4 5 14 100 99 100 100 100 100 100 100 100 100
0 0 5 5 5 2 0 0 0 0 0 0 5 4 4 5 5 0 0 5 24 100 100 100 100 99 75 2 0 1 8 5 5 41 100 100 100 100 100 100 100 100 100 100
0 0 4 5 94 46 0 0 5 5 0 2 21 7 0 1 48 5 0 1 5 70 40 8 12 38 100 23 4 2 6 5 5 28 100 100 100 100 100 100 100 100 100 100
3 0 4 5 34 10 1 4 0 2 1 0 0 11 7 47 18 5 14 8 3 36 5 5 5 98 61 10 5 5 5 11 10 5 100 98 100 100 100 100 100 100 100 100
2 2 5 5 20 9 4 5 15 5 0 22 10 8 5 11 4 5 40 74 65 5 5 2 7 29 100 17 5 5 5 5 5 5 38 34 100 100 100 98 100 100 100 100
1 5 5 5 5 5 10 14 25 8 100 5 27 4 5 5 5 5 5 5 14 5 0 4 8 32 70 5 50 33 45 5 28 66 95 17 100 100 72 90 100 100 100 100
0 5 5 5 35 42 100 80 94 50 5 2 1 5 54 99 70 7 24 14 25 53 48 85 100 44 6 54 89 58 55 5 13 5 9 5 100 99 100 100 100 100 100 100
4 24 5 19 61 84 79 5 4 0 1 2 5 38 95 99 13 75 71 54 63 73 50 26 55 57 5 7 5 22 80 15 7 10 6 91 100 88 100 100 100 100 100 100
25 49 60 7 67 94 41 5 5 5 5 5 6 28 13 97 30 9 51 87 67 96 100 94 5 36 5 5 16 25 46 13 90 7 100 100 100 46 100 100 100 100 100 100

GFSCGP_prec_cloud_027.txt.gz
Cloud_Cover
0 0 0 0 0 0 0 0 0 0 0 0 0 4 2 0 0 0 0 0 0 0 0 0 0 0 0 0 0 0 0 0 0 0 0 20 100 13 0 0 0 0 0 0
0 0 0 0 0 0 0 0 0 0 0 0 1 0 5 0 0 0 0 0 0 0 0 0 0 0 0 0 0 0 0 0 0 0 2 18 20 93 97 10 0 0 0 0
0 0 0 0 0 0 0 0 0 0 0 0 0 1 0 0 0 0 0 0 0 0 0 0 0 0 0 0 0 0 0 0 0 0 0 0 0 0 51 100 53 3 0 0
0 0 0 0 0 0 0 0 0 0 0 5 0 10 0 0 0 0 0 0 0 0 0 0 0 0 0 0 0 0 0 0 0 0 0 0 0 6 48 6 99 100 48 1
0 0 0 1 2 5 5 5 0 0 2 5 4 0 4 0 0 0 0 0 0 0 0 0 0 0 0 0 0 0 0 0 0 0 0 0 0 0 0 8 70 94 99 89
0 0 0 0 0 3 3 2 0 2 4 0 0 0 0 0 0 0 0 0 0 0 0 0 0 0 0 0 0 0 0 0 0 0 0 0 0 0 0 0 0 0 0 35
0 0 0 0 0 0 0 0 0 0 0 0 0 0 0 0 0 0 0 0 0 0 0 0 0 0 0 0 0 0 0 0 0 0 0 0 0 0 0 0 0 0 0 31
0 0 0 0 0 0 0 0 0 0 0 0 0 0 0 0 0 0 0 0 0 0 0 0 0 0 0 0 0 0 0 0 0 0 0 0 0 0 0 0 0 0 0 0
0 0 0 0 0 0 0 0 0 0 0 0 0 0 0 0 0 0 0 0 0 0 0 0 0 0 0 0 0 0 0 0 0 0 0 0 0 0 0 0 0 0 0 0
0 0 0 0 0 0 0 0 0 0 0 0 0 0 1 0 0 0 0 0 0 0 0 0 0 0 0 0 0 0 0 0 0 0 0 0 0 0 0 0 0 0 0 0
0 0 0 0 0 0 0 0 0 0 0 0 1 1 6 0 0 0 0 0 0 0 0 0 0 0 0 0 0 3 0 0 0 0 0 0 0 0 0 0 0 0 1 30
0 0 0 0 0 0 0 0 0 0 0 0 4 2 0 0 0 0 0 0 0 0 3 0 0 0 0 0 0 0 0 0 0 0 4 0 0 0 0 0 0 0 72 57
0 0 0 0 0 0 0 0 0 0 1 0 3 0 0 0 0 0 0 1 3 0 0 0 0 0 0 0 2 2 0 0 0 0 0 0 0 0 3 0 0 0 7 5
0 0 0 0 0 0 0 0 0 0 5 0 0 0 0 0 0 0 0 0 0 0 0 0 0 0 0 0 2 0 0 0 0 0 0 0 0 0 15 4 2 30 6 22
0 0 0 0 0 0 0 0 0 0 0 3 0 0 0 0 0 0 0 0 0 0 0 0 0 0 0 0 3 0 0 0 0 0 0 0 0 0 2 1 20 95 99 94
0 0 0 0 0 0 0 0 0 0 0 0 0 0 0 0 0 0 0 0 0 1 4 1 0 0 0 4 5 5 3 0 0 0 0 0 3 0 2 71 100 99 100 100
3 0 2 5 0 0 2 0 1 0 0 0 0 0 0 0 0 0 0 0 2 6 5 5 0 0 5 5 14 100 100 37 5 0 0 1 4 0 3 100 99 32 100 100
5 0 1 5 1 4 0 0 0 0 0 0 0 0 0 0 1 4 0 0 0 2 4 5 5 5 1 4 4 29 86 59 24 0 0 0 1 1 71 98 94 100 100 100
5 0 3 5 5 0 1 0 0 0 0 0 0 0 0 4 0 0 0 5 4 5 2 5 20 6 5 5 5 5 5 6 5 1 0 5 5 4 6 100 100 100 100 100
5 3 1 5 5 12 0 0 0 0 0 0 0 5 5 2 5 5 5 5 4 5 5 5 5 6 81 64 5 5 5 80 49 5 5 4 0 5 47 100 100 100 100 100
5 1 0 5 18 2 0 0 0 1 2 5 5 5 5 21 25 5 5 5 5 24 5 18 18 35 86 100 63 32 24 6 5 6 5 5 4 28 94 100 100 100 100 100
5 3 4 5 5 4 0 4 4 5 5 5 5 5 5 4 5 5 5 21 11 7 5 8 83 100 100 100 100 100 41 5 25 82 5 5 9 12 68 100 100 100 100 100
86 0 4 4 5 4 5 35 5 16 47 23 0 4 5 5 5 5 12 5 5 5 5 39 96 88 100 100 100 100 69 64 6 5 5 5 3 12 35 100 100 100 100 100
58 0 3 4 4 4 7 31 60 62 5 4 0 1 5 5 5 5 5 5 5 5 5 9 12 85 94 100 100 100 43 86 38 5 5 5 5 5 99 100 100 100 100 100
64 1 5 5 9 5 98 54 40 2 5 0 0 3 4 5 5 5 44 31 10 32 46 93 98 96 100 100 100 83 96 86 65 31 23 94 34 34 100 100 100 100 100 100
66 5 5 6 27 13 38 5 3 1 4 0 0 4 5 5 68 72 75 92 100 100 100 100 100 100 100 86 95 95 94 100 98 84 75 89 9 100 100 100 100 100 100 100

GFSCGP_prec_cloud_030.txt.gz
Cloud_Cover
5 0 0 0 0 0 0 0 0 0 3 5 0 4 2 0 0 0 0 0 0 0 0 0 0 0 0 0 0 0 0 0 0 0 0 0 0 9 100 98 99 62 100 31
0 0 0 0 0 0 0 0 0 0 0 0 0 0 0 0 0 0 0 0 0 0 0 0 0 0 0 0 0 0 0 0 0 0 0 0 0 2 92 100 95 79 57 88
0 0 0 0 0 0 0 0 0 0 0 0 0 0 0 0 1 0 0 0 0 0 0 0 0 0 0 0 0 0 0 0 0 0 0 0 0 0 0 1 79 100 87 39
0 0 0 0 0 0 0 0 1 5 5 1 0 0 0 0 0 0 0 0 0 0 0 0 0 0 0 0 0 0 0 0 0 0 0 0 0 0 0 0 0 26 71 93
0 0 0 0 0 0 0 0 0 1 4 5 0 0 0 0 0 0 0 0 0 0 0 0 0 0 0 0 0 0 0 0 0 0 0 0 0 0 0 0 0 0 0 22
0 0 0 0 5 3 0 1 0 4 0 0 0 0 0 0 0 0 0 0 0 0 0 0 0 0 0 0 0 0 0 0 0 0 0 0 0 0 0 0 0 0 0 0
0 0 0 2 5 4 4 1 0 0 0 0 0 0 0 0 0 0 0 0 0 0 0 0 0 0 0 0 0 0 0 0 0 0 0 0 0 0 0 0 0 0 0 0
0 0 0 0 0 0 0 0 0 0 0 0 0 0 0 0 0 0 0 0 0 0 0 0 0 0 0 0 0 0 0 0 0 0 0 0 0 0 0 0 0 0 0 0
0 0 0 0 0 0 0 0 0 0 0 0 1 0 0 0 0 0 0 0 0 0 0 0 0 0 0 0 0 0 0 0 0 0 0 0 0 0 0 0 0 0 0 0
0 0 0 0 0 3 0 0 0 0 0 0 0 0 0 0 0 0 0 0 0 0 0 0 0 0 0 0 0 0 0 0 0 0 0 0 0 0 0 0 0 0 0 0
0 0 0 0 0 0 0 0 0 0 0 0 0 1 0 0 0 0 0 0 0 0 0 0 0 0 0 0 0 0 0 0 0 0 0 0 0 0 0 0 0 0 0 0
0 0 0 0 0 0 0 0 0 0 0 0 4 1 0 0 0 0 0 0 0 0 0 0 0 0 0 0 0 0 0 0 0 0 0 0 0 0 0 0 0 0 0 0
0 0 0 0 0 0 1 5 0 0 2 3 0 0 0 0 0 0 0 0 0 0 0 0 0 0 0 0 0 0 0 0 0 0 0 0 0 0 0 0 0 0 0 0
0 0 0 0 0 0 0 0 0 0 4 0 0 0 0 0 0 0 0 0 0 0 0 0 0 0 0 0 0 0 0 0 0 0 0 0 0 0 0 0 0 0 0 0
0 0 0 0 0 0 0 0 0 0 0 0 0 0 0 0 0 0 0 0 0 0 0 0 0 0 0 0 0 0 0 0 0 0 0 0 0 0 0 0 0 0 0 5
1 0 0 0 0 0 3 5 0 0 0 0 0 0 0 0 0 0 0 0 0 0 0 0 0 0 0 0 5 0 0 0 0 0 0 4 5 5 5 0 0 3 4 24
0 0 0 1 0 0 5 5 0 0 0 0 0 0 0 0 0 0 0 0 0 4 5 5 5 0 0 1 0 0 5 5 5 4 0 0 5 16 0 0 5 4 2 21
0 0 1 4 1 0 4 0 0 0 0 0 0 0 0 0 0 0 0 1 5 5 3 4 5 5 5 5 8 44 7 5 25 8 5 0 0 5 5 4 0 0 5 82
0 0 5 4 5 0 5 0 0 0 0 0 0 1 0 0 0 0 0 4 2 5 61 78 5 5 5 5 5 5 37 100 91 94 97 5 1 5 5 5 0 5 46 100
0 0 0 5 3 4 1 0 0 0 0 0 0 0 0 1 5 2 0 0 5 5 5 5 5 5 5 5 7 89 96 50 23 100 100 76 5 36 72 5 2 5 91 100
5 5 5 4 8 4 0 0 0 0 0 0 0 0 0 5 1 0 5 2 5 3 1 3 5 5 5 5 13 10 7 50 97 98 100 76 5 78 69 5 5 26 100 99
92 85 5 19 10 4 0 0 0 0 0 0 0 1 0 0 0 1 2 2 4 5 5 5 53 39 12 82 100 93 50 93 98 98 98 55 12 5 5 4 3 100 100 100
100 100 12 2 4 27 4 5 5 5 5 2 4 5 0 0 0 2 5 5 5 56 87 99 100 62 5 76 100 100 100 86 96 92 8 5 5 5 5 4 74 100 100 100
100 100 61 0 62 18 12 10 5 5 5 7 32 4 0 1 5 5 62 99 100 98 100 100 100 100 100 100 100 100 100 100 97 53 46 5 5 6 5 18 100 100 100 100
100 89 83 0 18 5 5 5 5 5 5 5 5 0 5 5 14 93 100 76 60 99 100 100 100 100 100 100 100 100 100 100 100 65 32 64 13 15 22 23 88 100 100 100
100 100 11 5 18 5 50 5 5 5 2 5 3 5 5 12 83 26 67 68 100 96 100 100 100 100 100 100 100 100 100 93 95 100 98 99 100 100 83 45 94 100 100 100

GFSCGP_prec_cloud_033.txt.gz
Cloud_Cover
0 0 0 0 0 0 0 0 0 0 0 0 0 0 0 0 0 0 0 0 0 0 0 0 0 0 0 0 0 0 0 0 0 0 0 0 0 0 11 0 0 38 5 18
0 0 0 0 0 0 0 0 3 0 0 0 0 0 0 0 0 0 0 0 0 0 0 0 0 0 0 0 0 0 0 0 0 0 0 0 0 0 2 92 100 100 100 100
0 0 0 0 0 0 0 0 0 0 0 0 0 0 0 0 0 0 0 0 0 0 0 0 0 0 0 0 0 0 0 0 0 0 0 0 0 0 0 0 36 88 100 100
0 0 0 0 0 0 0 0 0 0 0 0 0 0 3 3 0 0 0 0 0 0 0 0 0 0 0 0 0 0 0 0 0 0 0 0 0 0 0 0 0 0 0 0
0 0 0 0 0 0 0 0 0 0 0 0 0 0 5 0 0 0 0 0 0 0 0 0 0 0 0 0 0 0 0 0 0 0 0 0 0 0 0 0 0 0 0 0
0 0 0 0 0 0 0 0 0 0 1 0 0 0 2 0 0 0 0 0 0 0 0 0 0 0 0 0 0 0 0 0 0 0 0 0 0 0 0 0 0 0 0 0
0 0 0 0 0 0 0 0 0 0 0 0 0 0 0 0 0 0 0 0 0 0 0 0 0 0 0 0 0 0 0 0 0 0 0 0 0 0 0 3 3 0 0 0
0 0 0 0 0 3 0 0 0 0 0 0 0 0 0 0 0 0 0 0 0 0 0 0 0 0 0 0 0 0 0 0 0 0 0 0 0 0 0 0 0 0 0 0
0 0 0 0 0 0 0 0 0 0 0 0 0 0 0 0 0 0 0 0 0 0 0 0 0 0 0 0 0 0 0 0 0 0 0 0 0 0 0 0 0 0 0 0
0 0 0 0 0 0 0 0 0 0 0 0 0 0 0 0 0 0 0 0 0 0 0 0 0 0 0 0 0 0 0 0 0 0 0 0 0 0 0 0 0 0 0 0
0 0 0 0 0 0 0 0 0 0 0 0 0 1 0 0 0 0 0 0 0 0 0 0 0 0 0 0 0 0 0 0 0 0 0 0 0 0 0 0 0 0 0 0
0 0 0 0 0 0 0 0 0 0 0 0 2 1 0 0 0 0 0 0 0 0 0 0 0 0 0 0 0 0 0 0 0 0 0 0 0 0 0 0 0 0 0 0
0 0 0 0 0 0 0 0 0 0 2 0 0 0 0 0 0 0 0 0 0 0 0 0 0 0 0 0 0 0 0 0 0 0 0 0 0 0 0 0 0 0 0 0
0 0 0 0 0 0 0 0 0 0 5 0 0 0 0 0 0 0 0 0 0 0 0 0 0 0 0 0 0 0 0 0 0 0 0 0 0 0 0 0 0 0 0 0
0 0 0 0 0 0 0 0 0 0 0 0 0 0 0 0 0 0 0 0 0 0 0 0 0 0 4 4 0 5 1 4 1 0 5 5 5 0 0 0 1 0 0 0
0 0 0 0 0 0 0 5 0 0 0 0 0 0 0 0 0 0 0 0 0 0 0 0 0 0 0 5 5 5 5 17 92 56 5 5 4 5 33 48 6 0 4 5
0 0 0 0 2 0 0 5 4 0 0 0 0 0 0 0 0 0 0 0 0 0 0 0 0 1 5 5 5 5 5 5 63 5 5 5 34 68 100 100 50 5 1 2
0 0 0 5 1 0 4 0 0 0 0 0 0 0 0 0 0 2 0 0 0 0 0 2 5 5 5 5 5 5 5 5 5 11 76 91 96 100 100 100 70 5 4 5
0 0 4 2 5 0 0 3 1 0 0 0 0 0 0 0 0 0 0 0 0 0 5 3 0 5 5 5 5 5 5 5 7 5 22 14 93 96 100 46 98 5 5 5
0 0 0 5 2 1 0 0 0 0 0 0 0 0 0 1 5 0 0 0 0 0 0 4 5 6 68 34 71 91 18 5 7 87 82 98 32 65 99 68 60 11 5 5
5 5 3 6 19 2 5 3 1 0 0 0 0 0 0 2 1 0 0 0 0 1 5 5 5 92 100 100 100 98 56 54 54 99 98 100 100 93 100 91 99 90 5 5
96 88 5 24 21 58 4 3 2 0 0 1 0 0 3 0 0 0 0 5 5 5 5 5 31 99 100 100 100 100 100 100 100 100 98 100 99 92 88 65 5 9 5 3
90 100 43 19 24 100 6 3 5 1 3 2 5 4 0 0 0 4 5 5 5 5 49 47 96 78 100 100 100 100 100 100 100 100 100 100 93 89 42 87 56 5 5 5
99 100 42 100 15 12 5 5 3 5 5 5 5 0 0 5 5 5 5 5 5 54 100 88 100 100 100 100 100 100 100 100 100 100 100 100 100 76 73 7 5 5 6 24
82 70 92 53 10 5 5 5 5 5 45 73 0 0 0 4 5 5 5 6 72 100 100 100 100 100 100 100 100 100 100 100 100 100 99 83 96 94 74 92 100 79 27 64
83 22 100 40 39 5 5 5 5 75 16 0 0 4 1 5 5 5 65 100 96 100 100 100 100 100 100 100 100 100 100 100 100 100 100 100 96 100 100 100 100 69 99 100